CAPE
472 666 878 314 232 175 121 25 12 23 113 226 179 86 95 81 72 53 161 381 506 632 733 758 830 875 845 934 889 881 922 1027 1115 1169 1203 1034 872 949 841 701 831 905 871
589 764 805 303 251 185 160 49 38 57 134 220 183 63 27 50 72 133 257 387 385 323 376 522 567 606 659 667 623 637 584 681 834 953 956 986 966 939 772 637 741 830 834
606 750 658 294 244 207 202 84 112 166 196 278 295 111 38 56 139 196 235 245 171 78 170 476 538 490 452 603 802 816 613 455 508 656 749 774 875 870 692 576 607 719 754
590 757 574 325 287 224 225 128 169 204 201 331 443 215 29 75 179 201 198 153 52 2 19 229 336 314 271 318 347 296 105 318 543 635 744 790 774 843 712 726 704 695 606
616 704 641 357 331 281 259 181 153 147 191 322 459 236 32 60 155 210 273 284 139 4 1 44 51 7 0 0 0 21 270 445 489 515 408 366 578 736 636 453 373 374 476
768 692 642 398 371 306 373 252 129 108 145 240 345 199 59 70 154 295 587 467 225 27 0 0 0 0 0 0 0 151 363 280 283 298 301 290 268 534 364 256 230 232 313
877 724 648 471 442 389 427 337 153 127 130 162 216 175 43 48 191 485 627 336 77 7 0 0 0 0 0 0 0 65 96 70 64 75 93 113 285 329 349 253 223 182 179
730 729 736 617 547 507 463 343 152 124 129 145 161 145 5 7 243 455 505 99 1 0 0 0 0 0 0 0 0 0 0 0 0 29 60 70 224 239 277 161 113 99 113
786 791 873 812 713 611 487 308 153 113 115 105 94 51 0 0 181 408 352 1 0 0 0 0 0 0 0 0 0 0 0 0 0 0 37 101 124 156 128 143 89 90 88
683 803 1036 1015 870 743 555 332 172 111 106 95 47 19 0 0 118 310 212 0 0 0 0 0 0 0 0 0 0 0 0 0 0 0 0 0 36 55 92 71 56 28 24
682 692 799 884 1058 827 613 434 218 125 115 105 39 0 0 0 48 205 111 0 0 0 0 0 0 0 0 0 0 0 0 0 0 0 0 0 0 0 0 0 0 0 0
441 545 626 842 913 830 630 512 293 187 178 143 28 0 0 0 0 29 56 0 0 0 0 0 0 0 0 0 0 0 0 0 0 0 0 0 0 0 0 0 0 0 0
720 593 633 752 905 813 726 550 348 226 160 105 6 0 0 0 0 0 17 0 0 0 0 0 0 0 0 0 0 0 0 0 0 0 0 0 0 0 0 0 0 0 0
945 744 652 739 777 839 688 613 401 222 152 84 11 0 0 0 0 0 0 0 0 0 0 0 0 0 0 0 0 0 0 0 0 0 0 0 0 0 0 0 0 1 3
1109 954 791 826 838 931 695 584 435 249 150 89 15 0 0 0 0 0 0 0 0 0 0 0 0 0 0 0 0 0 0 0 0 0 0 0 0 0 0 0 1 3 3
1379 1160 1140 1053 926 843 765 681 509 280 156 87 37 0 0 0 0 0 0 0 0 0 0 0 0 0 0 0 0 0 0 0 0 2 0 0 0 0 0 6 3 4 4
1441 1317 1290 1318 1113 883 711 707 526 293 174 92 62 0 0 0 0 0 0 0 0 0 0 0 0 0 0 0 0 0 0 0 0 0 1 1 0 0 0 0 14 9 3
828 1226 1264 1515 1284 879 799 752 530 332 219 120 75 2 0 1 0 0 0 0 0 0 0 0 0 0 0 0 0 0 0 0 0 0 6 0 0 0 8 21 14 6 0
29 1104 1205 1403 1345 988 969 762 530 297 258 184 102 42 0 17 3 0 0 0 0 0 0 0 0 0 0 0 0 0 21 3 0 0 0 2 0 2 11 30 18 14 0
0 720 1172 1256 1361 1174 856 709 338 209 209 167 155 75 0 8 47 0 0 0 0 0 0 0 0 0 0 0 0 42 114 35 4 2 0 2 0 18 45 37 39 9 0
0 0 868 1120 1190 1183 673 584 347 279 167 100 132 98 36 0 126 9 6 0 0 0 0 0 0 0 0 0 9 146 225 120 51 1 0 10 12 20 62 93 69 10 0
0 0 2 776 792 742 629 519 359 268 147 100 78 119 67 5 51 91 15 0 0 0 0 0 0 0 0 0 36 236 276 223 120 63 37 12 8 34 37 80 116 43 1
0 0 0 0 583 847 573 635 399 302 93 44 8 76 70 51 0 172 36 22 0 0 0 0 0 0 0 0 87 210 242 231 187 116 64 45 47 65 91 75 74 60 13
0 0 0 0 11 1069 794 410 501 311 341 160 109 153 142 84 15 52 116 38 1 0 0 0 0 0 0 0 67 211 177 109 216 171 33 31 1 24 35 54 91 55 17
0 0 0 0 0 0 1083 504 680 523 441 342 329 161 210 134 46 33 100 54 14 0 0 0 0 0 0 0 3 173 163 91 16 54 62 33 0 0 0 0 23 16 0
0 0 0 0 0 0 0 767 527 740 507 646 403 432 280 285 111 55 29 72 20 9 0 0 0 0 0 0 0 30 221 200 92 22 2 0 14 0 0 0 0 0 0
CIN
-466 -442 -387 -456 -478 -483 -479 -524 -503 -415 -330 -244 -239 -297 -296 -318 -349 -375 -271 -140 -101 -67 -40 -29 -17 -14 -14 -2 -7 -10 -11 -8 -1 -0 -0 -0 -0 -0 -1 -16 -4 -1 -1
-518 -441 -423 -480 -492 -486 -468 -515 -457 -413 -332 -257 -249 -315 -366 -356 -362 -304 -222 -143 -141 -158 -130 -73 -56 -47 -41 -35 -32 -21 -29 -19 -11 -3 -1 -0 -0 -0 -6 -20 -13 -2 -3
-504 -458 -464 -487 -480 -470 -458 -469 -431 -353 -310 -251 -206 -266 -331 -341 -289 -251 -223 -203 -233 -279 -216 -82 -60 -65 -71 -38 -12 -7 -30 -65 -47 -19 -5 -2 -0 -0 -11 -22 -17 -7 -5
-505 -457 -482 -469 -464 -454 -422 -446 -400 -349 -311 -237 -163 -224 -318 -308 -248 -228 -219 -235 -287 -365 -338 -173 -107 -110 -126 -114 -109 -147 -294 -131 -40 -30 -15 -5 -2 -0 -3 -3 -5 -4 -6
-492 -455 -454 -469 -449 -428 -406 -428 -410 -397 -329 -248 -172 -239 -302 -287 -244 -209 -169 -167 -221 -344 -124 -309 -304 -356 -0 -0 -0 -261 -169 -89 -70 -64 -82 -87 -39 -9 -18 -44 -61 -49 -21
-446 -436 -443 -453 -438 -412 -368 -376 -442 -424 -378 -294 -227 -263 -307 -274 -223 -162 -58 -95 -169 -309 -0 -0 -0 -0 -0 -0 -12 -239 -123 -166 -170 -149 -122 -117 -127 -48 -85 -125 -129 -114 -74
-413 -424 -419 -425 -414 -399 -357 -351 -406 -434 -397 -351 -294 -284 -343 -296 -194 -95 -56 -127 -250 -253 -0 -0 -0 -0 -0 -0 -0 -315 -282 -315 -323 -306 -268 -222 -113 -96 -96 -124 -132 -138 -132
-449 -419 -381 -365 -361 -362 -347 -344 -392 -408 -413 -369 -338 -317 -143 -252 -181 -101 -88 -218 -34 -0 -0 -0 -0 -0 -0 -0 -0 -0 -0 -0 -0 -372 -290 -258 -140 -130 -114 -154 -170 -172 -154
-427 -396 -337 -298 -298 -317 -341 -363 -390 -386 -400 -421 -412 -392 -0 -0 -230 -123 -134 -30 -0 -0 -0 -0 -0 -0 -0 -0 -0 -0 -0 -0 -0 -28 -329 -208 -168 -148 -159 -153 -169 -162 -156
-390 -369 -280 -258 -243 -266 -314 -361 -393 -396 -370 -409 -428 -476 -0 -0 -278 -173 -184 -0 -0 -0 -0 -0 -0 -0 -0 -0 -0 -0 -0 -0 -0 -0 -0 -0 -241 -197 -160 -164 -173 -185 -182
-345 -352 -326 -261 -207 -229 -280 -324 -373 -397 -387 -359 -431 -0 -0 -0 -338 -224 -231 -0 -0 -0 -0 -0 -0 -0 -0 -0 -0 -0 -0 -0 -0 -0 -0 -0 -0 -0 -0 -0 -0 -0 -0
-355 -367 -348 -278 -237 -231 -248 -288 -353 -381 -374 -377 -428 -0 -0 -0 -0 -350 -283 -0 -0 -0 -0 -0 -0 -0 -0 -0 -0 -0 -0 -0 -0 -0 -0 -0 -0 -0 -0 -0 -0 -0 -0
-294 -362 -341 -292 -231 -243 -243 -274 -334 -378 -400 -407 -216 -0 -0 -0 -0 -0 -356 -0 -0 -0 -0 -0 -0 -0 -0 -0 -0 -0 -0 -0 -0 -0 -0 -0 -0 -0 -0 -0 -0 -0 -0
-230 -291 -328 -311 -274 -225 -252 -266 -325 -384 -412 -448 -528 -0 -0 -0 -0 -0 -0 -0 -0 -0 -0 -0 -0 -0 -0 -0 -0 -0 -0 -0 -0 -0 -0 -0 -0 -0 -0 -0 -0 -0 -0
-146 -230 -302 -304 -296 -235 -263 -273 -319 -394 -432 -459 -543 -0 -0 -0 -0 -0 -0 -0 -0 -0 -0 -0 -0 -0 -0 -0 -0 -0 -0 -0 -0 -0 -0 -0 -0 -0 -0 -0 -0 -0 -0
-120 -184 -238 -261 -265 -306 -277 -269 -304 -390 -446 -476 -543 -0 -0 -0 -0 -0 -0 -0 -0 -0 -0 -0 -0 -0 -0 -0 -0 -0 -0 -0 -0 -105 -0 -0 -0 -0 -0 -90 -0 -0 -0
-96 -160 -210 -216 -218 -268 -314 -278 -305 -383 -442 -476 -527 -0 -0 -0 -0 -0 -0 -0 -0 -0 -0 -0 -0 -0 -0 -0 -0 -0 -0 -0 -0 -0 -181 -39 -0 -0 -0 -0 -153 -145 -2
-80 -139 -188 -158 -185 -227 -270 -305 -342 -393 -424 -456 -487 -649 -0 -109 -0 -0 -0 -0 -0 -0 -0 -0 -0 -0 -0 -0 -0 -0 -0 -0 -0 -0 -173 -0 -0 -0 -210 -163 -148 -52 -0
-46 -130 -169 -173 -184 -222 -208 -265 -323 -394 -408 -448 -448 -532 -0 -539 -145 -0 -0 -0 -0 -0 -0 -0 -0 -0 -0 -0 -0 -0 -180 -44 -0 -16 -0 -135 -10 -91 -233 -180 -187 -176 -0
-0 -119 -139 -168 -193 -208 -267 -252 -303 -336 -383 -457 -446 -477 -0 -351 -473 -0 -0 -0 -0 -0 -0 -0 -0 -0 -0 -0 -0 -165 -147 -187 -81 -75 -0 -152 -5 -233 -202 -200 -190 -115 -0
-0 -1 -105 -112 -177 -181 -238 -270 -339 -307 -395 -460 -477 -454 -507 -0 -398 -524 -375 -0 -0 -0 -0 -0 -0 -0 -0 -0 -236 -151 -141 -179 -219 -139 -0 -295 -283 -265 -217 -195 -202 -131 -0
-0 -0 -132 -47 -124 -204 -240 -301 -336 -330 -429 -478 -525 -462 -449 -297 -449 -414 -467 -0 -0 -0 -0 -0 -0 -0 -0 -0 -268 -128 -105 -124 -195 -226 -246 -290 -305 -257 -239 -202 -171 -214 -22
-0 -0 -0 -0 -53 -119 -201 -280 -240 -219 -222 -293 -339 -413 -452 -501 -0 -357 -425 -443 -0 -0 -0 -0 -0 -0 -0 -0 -239 -158 -141 -146 -173 -220 -268 -268 -234 -229 -213 -206 -183 -203 -259
-0 -0 -0 -0 -17 -44 -42 -135 -199 -234 -215 -329 -418 -450 -426 -438 -508 -413 -362 -408 -71 -0 -0 -0 -0 -0 -0 -0 -276 -187 -184 -254 -166 -186 -308 -299 -64 -293 -289 -249 -196 -228 -271
-0 -0 -0 -0 -0 -0 -23 -22 -68 -135 -173 -233 -278 -354 -361 -402 -441 -411 -357 -405 -416 -0 -0 -0 -0 -0 -0 -0 -358 -221 -204 -260 -344 -302 -285 -304 -0 -0 -0 -0 -307 -339 -0
-0 -0 -0 -0 -0 -0 -0 -14 -18 -43 -102 -136 -162 -182 -304 -340 -399 -378 -388 -386 -416 -420 -0 -0 -0 -0 -0 -0 -0 -334 -202 -213 -296 -310 -107 -0 -238 -0 -0 -0 -0 -0 -0
Wind_Speed
21 24 25 26 26 26 25 27 27 26 25 22 22 21 21 21 21 22 22 22 22 23 24 25 25 23 21 18 17 12 10 10 9 9 33 37 36 36 35 36 35 35 34
23 24 25 25 26 26 27 28 27 27 25 23 22 22 21 21 21 21 21 22 22 23 24 26 22 17 12 10 8 9 9 8 9 16 33 35 35 34 35 35 35 35 34
23 23 23 25 25 26 27 27 28 27 26 24 23 23 22 21 21 21 21 22 22 21 24 23 17 9 9 9 9 9 8 7 21 32 35 35 34 34 33 34 33 33 33
22 21 22 24 25 25 25 27 28 28 26 25 23 22 21 21 20 21 21 21 19 23 20 17 9 9 10 11 15 16 14 9 18 26 33 34 33 32 30 31 33 33 33
19 19 21 23 24 24 25 26 28 28 26 25 23 22 21 21 20 21 21 17 19 19 11 9 7 11 10 10 10 12 19 26 26 26 31 32 32 32 31 32 33 32 33
15 17 20 22 23 24 24 24 27 27 26 25 24 23 22 22 21 22 18 13 22 19 6 9 9 8 9 7 4 15 25 27 26 27 29 30 31 31 31 31 31 31 31
12 16 18 20 22 23 23 24 24 27 26 25 24 23 23 24 25 22 6 11 11 23 11 12 11 8 6 2 8 26 26 27 26 26 28 29 30 30 29 29 29 30 30
14 14 15 17 19 22 22 23 23 25 26 25 24 23 23 25 25 21 4 19 4 16 21 15 12 7 2 6 17 22 23 25 26 26 27 28 29 28 28 28 28 28 28
11 11 13 14 17 19 21 21 22 23 25 26 24 24 23 25 25 23 17 13 7 9 14 16 15 8 5 12 15 20 23 25 26 26 26 27 27 26 27 27 26 27 27
6 10 10 11 13 15 18 20 21 22 22 24 24 24 24 24 24 23 21 18 13 2 1 6 8 3 6 14 15 20 23 23 25 25 25 25 25 25 25 25 25 25 25
4 8 10 11 11 12 14 17 19 20 21 21 23 23 22 21 21 21 21 20 18 15 7 2 6 4 5 11 14 17 20 21 22 24 24 24 23 23 23 23 24 24 24
5 8 11 12 11 12 11 14 15 16 17 18 20 21 19 19 18 17 17 18 15 13 10 5 6 9 12 6 11 15 19 20 21 23 22 22 22 22 21 22 22 23 23
7 8 12 13 12 12 11 12 12 12 13 15 18 20 19 16 15 14 12 12 11 10 8 11 17 18 20 16 9 13 19 18 19 20 21 21 21 20 20 20 21 21 22
11 9 11 14 14 14 11 12 12 12 11 12 16 18 19 17 14 12 12 13 14 14 15 26 26 24 23 21 10 11 16 16 17 18 19 19 19 19 19 19 19 19 20
13 12 11 14 16 16 14 13 12 12 11 10 12 16 16 16 16 12 11 12 13 13 13 18 26 26 25 22 19 15 14 14 15 16 17 17 17 18 18 18 18 18 19
16 16 15 14 16 19 18 15 14 13 12 11 11 13 14 14 16 13 12 10 11 13 13 13 15 14 19 23 19 8 12 12 13 14 15 15 16 16 17 17 17 18 18
21 17 16 16 15 19 21 19 16 15 14 14 12 12 12 12 13 14 13 13 11 9 11 10 11 6 5 16 17 8 10 11 11 12 13 14 15 15 15 15 16 17 17
23 22 20 20 18 18 22 22 20 19 17 17 15 14 14 12 12 11 13 13 13 11 8 8 7 5 4 5 5 6 7 9 10 11 12 13 13 14 14 15 15 15 15
27 23 23 22 20 20 21 22 24 22 22 21 19 17 17 14 13 12 10 10 12 12 12 10 7 4 1 1 3 4 7 8 9 10 12 13 12 13 13 14 14 14 13
25 24 27 27 27 23 23 24 25 28 26 25 23 21 19 18 16 14 12 12 10 11 13 13 10 8 2 7 2 5 5 7 8 12 13 12 11 13 13 13 11 11 11
26 23 28 32 32 28 28 28 28 27 28 28 26 24 23 22 19 17 15 14 14 14 13 14 11 11 10 6 3 8 10 4 6 9 11 11 11 13 13 11 10 9 9
29 26 25 32 40 38 33 32 32 32 27 28 29 28 26 24 24 21 18 17 16 14 14 16 14 9 8 10 3 4 8 12 8 3 8 10 11 9 10 9 7 7 7
27 28 30 32 36 39 39 33 35 34 35 34 34 31 29 28 27 25 22 20 18 17 18 16 16 15 12 10 7 3 8 6 5 10 5 3 7 8 9 9 8 7 7
30 31 30 31 31 36 38 41 37 37 36 34 29 31 30 29 28 28 26 24 22 20 19 18 17 17 13 16 10 10 9 8 8 9 11 3 1 5 7 8 8 7 8
32 32 33 32 31 31 37 41 43 43 41 37 34 33 34 31 31 30 29 27 25 24 22 21 20 20 18 16 18 13 13 10 11 15 10 4 3 4 6 8 9 7 7
32 32 33 33 34 32 33 42 46 50 44 40 40 39 36 33 32 33 32 30 28 27 25 25 24 23 22 19 18 17 18 13 11 13 17 11 7 5 7 8 8 6 7
Wind_Direction
119 118 114 105 99 94 89 88 85 82 79 75 74 73 73 73 72 72 71 70 67 67 68 68 67 62 61 61 59 64 73 71 89 97 89 87 84 83 81 82 80 78 72
116 119 115 107 102 98 95 95 90 86 82 79 78 75 74 74 74 74 71 69 68 69 70 72 66 63 67 75 102 85 74 83 67 52 71 78 76 75 78 78 77 76 71
118 117 114 110 105 102 99 98 95 91 87 85 82 80 78 77 76 74 72 69 68 68 73 71 67 86 89 118 123 121 85 79 55 71 83 91 81 76 74 74 72 72 68
120 118 115 112 108 105 102 102 100 96 92 89 85 83 80 79 77 75 73 69 65 72 72 71 83 131 142 147 151 151 152 130 53 60 99 89 84 74 67 69 72 74 72
120 120 118 116 112 109 106 105 103 101 97 94 91 87 84 82 80 79 76 69 69 70 74 88 134 154 155 158 161 160 71 67 65 61 73 81 83 76 74 74 78 73 74
122 123 122 119 117 113 110 107 108 105 102 99 97 92 90 89 86 84 75 70 77 73 146 159 158 152 154 149 131 59 71 70 67 66 72 74 83 77 75 74 73 73 71
129 128 125 124 122 119 116 112 109 110 107 105 102 99 97 98 97 89 85 74 73 103 172 171 170 166 164 117 50 74 72 73 70 69 75 78 85 80 75 73 70 72 69
137 135 132 129 126 123 120 117 114 112 112 110 108 105 102 104 104 93 108 85 154 175 169 178 180 180 104 38 60 67 66 72 73 73 77 81 83 80 76 75 73 70 69
141 145 141 136 131 128 126 123 120 117 116 116 113 110 108 110 109 101 91 84 187 190 186 186 187 195 33 43 51 59 65 72 75 78 77 81 81 77 78 77 71 71 68
158 161 159 150 140 134 131 130 127 124 120 119 117 115 113 114 113 110 102 96 84 186 140 218 218 252 24 48 45 67 76 70 74 79 80 82 79 77 78 76 73 69 67
219 195 179 170 158 147 139 136 133 130 127 123 121 119 116 114 114 112 109 107 98 87 62 283 245 294 341 37 44 58 79 79 76 85 81 80 76 74 73 72 72 71 66
204 213 206 187 179 166 155 146 140 135 130 127 124 124 119 118 117 114 112 110 102 91 72 26 282 255 236 295 30 42 81 85 83 90 82 80 76 72 69 68 68 69 64
223 225 212 202 193 184 173 163 152 145 139 134 133 131 127 121 119 118 115 110 103 92 75 80 223 217 208 222 352 39 88 86 84 90 85 81 77 73 70 66 64 63 65
242 233 219 212 204 197 199 179 169 163 157 149 143 139 135 132 128 125 125 123 120 116 115 158 177 194 203 213 284 359 92 90 90 89 89 84 80 76 72 69 65 61 60
244 241 227 220 215 210 205 197 189 183 178 172 157 150 145 142 139 134 132 131 130 126 122 133 169 187 200 213 234 279 97 90 93 88 86 84 82 79 78 75 71 68 64
255 248 243 238 231 218 218 210 205 204 200 195 182 168 159 154 150 146 143 142 139 137 133 130 133 127 143 221 244 38 91 84 92 92 85 86 89 87 85 83 79 78 75
265 244 238 238 238 230 222 225 223 218 216 209 206 191 179 171 163 158 155 153 153 148 142 135 133 110 89 269 267 61 84 87 92 96 91 91 95 94 93 89 85 91 85
273 257 245 245 241 237 233 226 230 226 223 226 222 212 197 194 182 175 168 165 160 158 157 150 143 135 113 100 75 58 72 87 99 104 103 101 100 102 106 104 97 97 90
276 260 247 241 240 237 240 236 236 231 231 231 233 226 209 210 202 190 190 180 168 167 164 163 159 154 132 103 87 23 98 101 108 114 119 121 113 116 111 115 110 108 102
288 266 252 248 246 242 239 243 245 242 238 235 232 230 222 221 217 206 207 193 185 177 170 165 166 164 171 140 60 336 63 115 111 133 136 125 121 126 123 121 114 114 113
287 281 260 252 249 245 244 238 243 243 239 237 229 229 228 224 228 218 214 206 195 189 185 178 173 171 165 155 315 316 322 62 113 126 134 136 136 139 139 132 125 117 122
284 284 278 265 253 247 245 245 246 246 243 235 234 233 231 229 228 226 221 212 210 207 201 190 186 192 189 173 215 314 314 308 320 83 133 145 149 141 150 150 138 130 123
288 288 285 283 262 249 247 246 247 248 250 247 242 234 226 223 223 223 225 222 224 219 208 208 200 194 199 201 203 265 302 319 318 311 333 104 145 152 158 160 157 145 145
289 284 289 289 286 254 249 245 238 241 242 244 240 237 230 224 225 226 231 228 222 229 228 217 218 207 215 196 229 218 282 309 303 311 303 321 12 154 157 157 163 164 167
290 286 283 287 286 278 252 245 243 243 245 246 247 244 238 232 227 226 232 229 225 228 228 224 220 214 212 212 206 225 262 273 295 298 300 276 276 197 180 176 178 178 182
292 290 285 283 283 281 276 253 246 246 245 245 245 246 244 239 231 232 233 232 229 230 229 225 223 220 218 223 230 223 212 240 256 282 294 298 238 253 207 198 197 200 196